Regional Weather Roundup
Issued by NWS Midland/Odessa, TX

Skip options and go directly to product.
Home | Oldest Version | Previous Version | Current Version | All | Text Only | Save Text | Print | Product List | Glossary On

Skip product version selection by date and time.   
669
ASUS44 KMAF 301310
RWRMAF
MIDLAND AREA WEATHER ROUNDUP
NATIONAL WEATHER SERVICE MIDLAND TX
800 AM CDT THU JUN 30 2016

...IN SOUTHWEST TEXAS AND SOUTHEAST NEW MEXICO...

CITY           SKY/WX    TMP DP  RH WIND       PRES   REMARKS
ALPINE         MOSUNNY   67  60  79 CALM      30.23R
ANDREWS        FAIR      72  61  67 S5        30.12R
ARTESIA        SUNNY     72  57  60 CALM      30.12R
BIG SPRING     SUNNY     73  60  64 SE7       30.11R
CARLSBAD       SUNNY     72  59  63 CALM      30.09R
DRYDEN           N/A     76  65  68 NE3       30.04R
FORT STOCKTON  SUNNY     71  62  73 S9        30.08R
GUAD PASS      SUNNY     69  55  60 SW10      30.24R
HOBBS          SUNNY     70  59  68 CALM      30.14R
MARFA          CLOUDY   N/A N/A N/A N3        30.22R
MIDLAND AIRPK  SUNNY     74  63  66 S3        30.10R
MIDLAND INTL   SUNNY     73  62  68 SE3       30.10R
ODESSA         SUNNY     74  61  63 S7        30.11R
PECOS          SUNNY     70  62  75 CALM      30.06R
PRESIDIO       FAIR      76  59  54 N8        30.06R
SEMINOLE       SUNNY     70  61  72 CALM      30.13R
SNYDER           N/A     70  64  81 SE3       30.11R
WINK           SUNNY     72  64  76 E5        30.07R
$$
...OTHER STATIONS IN TEXAS...

CITY           SKY/WX    TMP DP  RH WIND       PRES   REMARKS
ABILENE        SUNNY     75  69  81 S8        30.08R
AMARILLO       CLOUDY    71  58  63 W7        30.14F
AUSTIN         MOSUNNY   78  74  87 NE5       29.99R
BROWNSVILLE    MOSUNNY   80  77  90 S3        29.94R
CORPUS CHRISTI MOSUNNY   77  75  93 CALM      29.96R
DALLAS FTW     MOSUNNY   81  70  69 CALM      30.02R
DEL RIO        SUNNY     77  68  73 E5        29.98R
EL PASO        PTSUNNY   75  56  51 NE3       30.11R
HOUSTON INT    MOSUNNY   78  72  81 NE6       29.96R
LUBBOCK        PTSUNNY   74  63  68 E3        30.15R
SAN ANGELO     SUNNY     72  66  81 CALM      30.06R
SAN ANTONIO    SUNNY     80  71  74 NE3       29.99R
WACO           SUNNY     78  71  79 CALM      30.01R
WICHITA FALLS  NOT AVBL
$$
...OTHER LOCATIONS IN NEW MEXICO...

CITY           SKY/WX    TMP DP  RH WIND       PRES   REMARKS
ALAMAGORDO     MOSUNNY   72  54  53 NE6       30.15S
ALBUQUERQUE    CLOUDY    73  50  44 SW6       30.23R
CANNON AFB     CLOUDY    69  61  75 E7        30.19R
CLOVIS         CLOUDY    72  61  68 E8        30.19R
HOLLOMAN AFB   CLOUDY    73  54  51 NE3       30.13R
ROSWELL        SUNNY     72  53  51 S8        30.11R
RUIDOSO          N/A     63  48  59 SW5       30.35R
SANTA FE       PTSUNNY   64  47  53 N6        30.29S
TRUTH OR CONSE PTCLDY    73  54  51 N6        30.17R
TUCUMCARI      CLOUDY    70  58  65 SE12      30.14S
$$

USA.gov is the U.S. government's official web portal to all federal, state and local government web resources and services.